Powrót do katalogu

SL-8 DEB

AktywnyLEO
NORAD 21177·DEBRIS·🇷🇺 Russia

Wystrzelony Feb 12, 1991 z Plesetsk Cosmodrome

Loading…

Następne Przeloty (najbliższe 24 godziny)

TLE

ŚwieżeSource: Space-Track

Epoka: Sep 14, 2026, 14:25 UTC

1 21177U 91009AQ  26257.60079956 -.00000085  00000-0 -71026-3 0  9995
2 21177  74.1120 343.7563 0146314 310.5895 113.3076 12.13558074573817

Śledź SL-8 DEB w czasie rzeczywistym z AllMySat

Download on the App Store